Location: Campestrin
(46.4667°N, 11.7167°E)
Time: 17:07:01
(UTC+00:00)

CZ-4C R/B - Pass Details

Date: 18 April 2021
Orbit: 612 x 1390 km, 63.4° (Epoch: 07 May)

Event Time Altitude Azimuth Distance (km) Brightness Sun altitude
Rises 18:25:44 0° 227° (SW) 3,017 5.5 -4.2°
Reaches altitude 10° 18:27:54 10° 231° (SW) 2,175 4.8 -4.5°
Maximum altitude 18:32:48 66° 313° (NW) 870 2.6 -5.3°
Drops below altitude 10° 18:38:48 10° 36° (NE) 2,640 4.7 -6.3°
Sets 18:41:40 0° 39° (NE) 3,720 5.4 -6.7°
